This is the latest recevied weather packets stored in our database for station/object WC4PEM-4. If no packets are shown the sender has not sent any weather packets the latest 10 day(s).
| Time | Temp. | Humidity | Pressure | Rain* | Wind** | Luminosity | Snow |
|---|---|---|---|---|---|---|---|
| 1788210680 | 25° C | 92% | 1016.5 hPa | 0 mm | - | - | - |
| 1788210498 | 25° C | 92% | 1016.5 hPa | 0 mm | - | - | - |
| 1788210387 | 25° C | 92% | 1016.5 hPa | 0 mm | - | - | - |
| 1788210080 | 25° C | 92% | 1016.4 hPa | 0 mm | - | - | - |
| 1788209780 | 25° C | 93% | 1016.3 hPa | 0.25 mm | - | - | - |
| 1788209480 | 25° C | 93% | 1016.4 hPa | 0.51 mm | - | - | - |
| 1788209298 | 25° C | 93% | 1016.3 hPa | 0.51 mm | - | - | - |
| 1788209180 | 25° C | 93% | 1016.3 hPa | 0.51 mm | - | - | - |
| 1788208998 | 25° C | 93% | 1016.2 hPa | 1.02 mm | - | - | - |
| 1788208880 | 25° C | 93% | 1016.2 hPa | 1.02 mm | - | - | - |
| 1788208580 | 25° C | 93% | 1016.2 hPa | 2.29 mm | - | - | - |
| 1788208280 | 24.44° C | 94% | 1016.2 hPa | 3.81 mm | - | - | - |
| 1788207980 | 24.44° C | 94% | 1016.4 hPa | 5.08 mm | - | - | - |
| 1788207680 | 24.44° C | 94% | 1016.4 hPa | 5.59 mm | - | - | - |
| 1788207512 | 24.44° C | 94% | 1016.4 hPa | 6.1 mm | - | - | - |
| 1788207380 | 24.44° C | 94% | 1016.4 hPa | 6.1 mm | - | - | - |
| 1788207216 | 24.44° C | 93% | 1016.4 hPa | 6.1 mm | - | - | - |
| 1788207080 | 24.44° C | 93% | 1016.4 hPa | 6.1 mm | - | - | - |
| 1788206780 | 24.44° C | 93% | 1016.5 hPa | 6.1 mm | - | - | - |
| 1788206481 | 24.44° C | 93% | 1016.6 hPa | 6.1 mm | - | - | - |
| 1788206180 | 23.89° C | 93% | 1016.6 hPa | 5.84 mm | - | - | - |
| 1788205966 | 23.89° C | 92% | 1016.8 hPa | 5.59 mm | - | - | - |
| 1788205880 | 23.89° C | 92% | 1016.8 hPa | 5.59 mm | - | - | - |
| 1788205581 | 23.89° C | 92% | 1016.8 hPa | 5.59 mm | - | - | - |
| 1788205394 | 23.89° C | 91% | 1017 hPa | 4.83 mm | - | - | - |
* Rain latest hour (hover to see other rain measurements)
** Current wind speed in m/s (hover to see current wind gust speed)